Tracking 19847 objects as of 15-Sep-2019
HD Live streaming from Space Station
objects crossing your sky now

METEOR 1-21

Track METEOR 1-21 now!
10-day predictions
METEOR 1-21 is classified as:


NORAD ID: 7714
Int'l Code: 1975-023A
Perigee: 850.5 km
Apogee: 896.1 km
Inclination: 81.2 °
Period: 102.3 minutes
Semi major axis: 7244 km
RCS: 4.3419 m2 (large)
Launch date: April 1, 1975
Source: Commonwealth of Independent States (former USSR) (CIS)
Launch site: PLESETSK MISSILE AND SPACE COMPLEX (PKMTR)
aabbcc
Your satellite tracking list
Your tracking list is empty




NASA's NSSDC Master Catalog

Two Line Element Set (TLE):
1  7714U 75023A   19257.72221725  .00000128  00000-0  67747-4 0  9994
2  7714  81.2109 113.6559 0031522 103.2397 257.2292 14.08016687600512
Source of the keplerian elements: AFSPC